GEFSSGP_con_cape1000_102.txt.gz
Probability
100 97 100 100 100 81 0 0 0 0 0 0 0 0 0 3 3 19 32 26 16 39 58 71 74 71 74 68 71 71 68 77 74 90 87 87 87 87 87 84 90 94 87 90 94 94 94 90 87
100 100 100 100 77 3 0 0 0 0 0 0 0 0 3 0 10 16 23 32 23 39 45 58 74 71 68 65 71 74 87 87 94 87 77 74 74 87 87 81 90 87 90 87 90 90 90 90 84
97 100 100 97 42 0 0 0 0 0 0 0 0 0 3 3 13 13 23 26 26 35 39 48 68 58 52 58 58 65 71 74 74 87 81 81 77 81 81 81 84 81 81 81 81 90 87 84 87
100 100 97 71 3 0 3 0 0 0 0 0 0 3 3 6 23 19 16 19 16 29 39 48 55 58 42 52 52 58 68 71 68 65 61 71 74 74 81 81 77 77 77 77 77 77 81 81 77
100 97 84 16 0 0 0 0 0 0 0 0 0 3 6 6 23 26 26 23 16 19 32 26 39 42 35 32 35 39 45 52 61 61 58 68 71 74 74 74 81 77 71 71 77 77 77 74 74
100 94 39 3 0 3 0 0 0 0 0 0 3 0 6 10 26 16 16 6 10 10 19 19 29 29 29 29 29 26 29 32 32 39 42 52 61 65 74 74 74 81 74 68 77 77 77 74 71
97 90 35 10 6 0 0 0 3 3 0 0 3 3 6 13 23 16 6 3 3 3 6 13 16 16 19 16 16 13 10 10 16 26 26 35 45 65 61 65 65 65 81 77 77 81 74 74 74
97 94 29 6 16 3 0 0 0 0 0 0 0 3 13 13 10 10 3 6 3 3 6 3 10 13 10 10 16 10 10 13 13 19 32 35 39 45 55 61 65 65 68 81 81 77 74 74 74
87 81 19 6 6 6 0 0 0 0 0 0 0 6 13 10 6 6 6 3 3 3 0 3 3 3 6 13 6 10 10 13 13 13 29 32 19 13 32 48 65 65 65 68 77 74 74 74 74
74 68 26 10 0 6 0 0 3 3 0 0 6 10 10 6 6 6 3 3 3 0 0 0 3 3 0 0 0 3 3 6 6 6 10 13 13 10 16 26 48 58 61 65 77 77 71 74 32
39 45 19 6 3 0 0 3 3 0 3 3 6 3 10 10 6 3 3 3 3 0 0 0 0 3 3 0 0 3 3 3 0 3 6 6 10 13 16 13 26 35 39 39 48 61 39 23 0
23 26 3 0 3 3 3 0 3 10 6 3 3 6 6 6 3 3 3 3 3 0 3 3 3 0 3 0 0 0 3 0 0 6 6 3 6 13 6 16 13 19 29 29 32 35 26 19 10
19 19 10 3 3 3 3 3 0 6 6 3 3 3 6 6 6 6 6 6 6 6 6 3 0 3 3 3 3 0 0 3 0 0 0 0 3 6 6 6 6 6 16 23 13 23 16 16 13
10 19 13 3 3 3 3 6 6 10 3 3 3 6 6 6 6 6 6 3 3 3 3 0 0 0 0 3 0 0 0 0 0 0 0 0 0 0 0 0 6 6 6 10 13 10 13 6 13
10 10 6 13 10 3 3 0 10 6 6 3 3 6 6 6 6 6 3 3 3 3 0 0 0 0 0 0 0 0 0 3 0 0 0 0 0 0 0 3 6 10 6 10 13 3 3 0 0
3 0 13 13 10 10 6 0 10 6 10 6 6 6 6 6 3 3 3 3 0 0 0 0 0 0 0 0 0 0 0 0 0 0 0 0 0 0 0 0 0 6 6 6 10 13 6 3 6
6 3 3 6 6 6 6 0 6 6 6 6 6 6 6 3 3 3 0 0 0 0 0 0 0 0 0 0 0 0 0 0 0 0 0 0 0 0 0 3 0 3 3 3 6 6 6 6 0
0 0 0 0 6 3 3 3 6 3 6 3 3 6 6 3 3 0 0 0 0 0 0 0 0 0 0 0 0 3 0 3 3 3 0 0 0 0 0 3 3 6 3 3 3 3 3 3 0
0 0 0 0 3 0 0 0 3 3 6 3 3 0 3 3 3 0 0 0 0 0 0 0 0 0 0 0 0 0 0 0 0 3 0 0 0 0 0 0 3 6 10 6 3 3 3 3 0
0 0 0 0 0 0 0 0 0 3 3 3 0 3 3 3 0 0 0 0 0 0 0 0 0 0 0 0 0 0 0 0 0 0 0 0 0 0 0 0 0 3 6 6 10 3 3 3 0
0 0 0 0 0 0 0 0 0 0 0 0 0 0 0 3 0 0 0 0 0 0 0 0 0 0 0 0 0 0 0 0 0 0 0 0 0 0 0 3 3 0 3 3 3 3 3 3 3
0 0 0 0 0 0 0 0 0 0 0 0 0 0 0 0 0 0 0 0 0 0 0 0 0 0 0 0 0 0 0 0 0 0 0 0 0 0 3 10 6 6 6 6 6 3 3 3 6
0 0 0 0 0 0 0 0 0 0 0 0 0 0 0 0 0 0 0 0 0 0 0 0 0 0 0 0 0 0 0 0 0 0 0 0 0 0 3 3 6 3 3 3 6 3 0 3 3
0 0 0 0 0 0 0 0 0 0 0 0 0 0 0 0 0 0 0 0 0 0 0 0 0 0 0 0 0 0 0 0 0 0 0 0 0 0 0 0 0 0 0 3 3 3 3 0 0
0 0 0 0 0 0 0 0 0 0 0 0 0 0 0 0 0 0 0 0 0 0 0 0 0 0 0 0 0 0 0 0 0 0 0 0 0 0 0 0 0 0 0 3 3 3 3 3 0
0 0 0 0 0 0 0 0 0 0 0 0 0 0 0 0 0 0 0 0 0 0 0 0 0 0 0 0 0 0 0 0 0 0 0 0 0 0 0 0 0 0 0 0 0 3 6 6 3
0 0 0 0 0 0 0 0 0 0 0 0 0 0 0 0 0 0 0 0 0 0 0 0 0 0 0 0 0 0 0 0 0 0 0 0 0 0 0 0 0 0 3 6 3 3 3 6 6
0 0 0 0 0 0 0 0 0 0 0 0 0 0 0 0 0 0 0 0 0 0 0 0 0 0 0 0 0 0 0 0 0 0 0 0 0 0 0 0 0 0 0 0 0 10 10 6 6
0 0 0 0 0 0 0 0 0 0 0 0 0 0 0 0 0 0 0 0 0 0 0 0 0 0 0 0 0 0 0 0 0 0 0 0 0 0 0 0 0 0 0 0 0 3 3 6 6
0 0 0 0 0 0 0 0 0 0 0 0 0 0 0 0 0 0 0 0 0 0 0 0 0 0 0 0 0 0 0 0 0 0 0 0 0 0 0 0 0 0 0 3 0 0 3 3 3

GEFSSGP_con_cape1000_108.txt.gz
Probability
100 90 71 58 19 0 0 0 0 0 0 0 0 0 0 0 0 0 3 23 35 42 65 74 77 71 61 68 74 74 77 77 77 77 84 84 84 84 84 87 87 77 77 87 94 90 90 87 84
97 94 68 32 3 0 0 0 0 0 0 0 0 0 0 3 0 0 16 26 35 42 52 61 74 77 81 77 65 74 74 77 81 81 74 71 71 77 77 74 84 90 74 77 87 94 87 87 81
84 81 58 13 0 0 0 0 0 0 0 0 0 3 0 3 3 3 16 29 26 32 42 71 74 74 71 68 68 68 74 77 74 74 74 74 84 81 77 68 77 74 84 77 81 87 87 77 84
84 68 19 0 0 0 0 0 0 0 0 0 0 0 3 3 6 13 19 23 23 23 29 52 65 65 61 58 58 58 58 65 65 68 71 74 71 74 77 81 74 74 68 77 74 71 77 77 81
81 42 3 0 0 0 0 0 0 0 0 3 3 0 6 3 10 10 16 16 13 16 26 42 52 52 42 42 45 39 48 52 55 58 61 58 65 68 65 74 77 90 87 74 71 74 74 77 71
58 10 0 0 0 0 0 0 0 0 3 3 3 6 6 3 10 13 13 10 13 16 23 32 39 39 39 32 23 32 39 35 35 45 42 45 55 58 65 61 68 77 74 81 81 77 77 74 71
55 6 0 0 0 0 0 0 0 0 0 0 3 3 0 3 6 10 10 10 13 13 16 19 26 29 29 32 29 32 32 26 26 29 42 42 45 48 48 55 55 68 74 74 81 84 74 77 77
45 3 0 0 0 0 0 0 0 0 0 0 6 3 3 0 0 3 6 6 6 6 6 10 16 10 10 10 26 29 26 19 23 26 26 35 39 39 39 32 48 45 68 71 68 71 74 77 77
13 3 0 0 0 0 0 0 0 0 0 3 3 6 3 3 0 3 3 3 3 3 3 3 3 3 3 3 6 10 10 10 19 6 6 10 10 10 6 13 35 42 48 65 68 65 71 74 74
16 0 0 0 0 0 0 0 0 3 0 6 6 3 6 3 0 3 3 3 0 0 0 3 3 3 3 3 3 3 3 3 3 0 0 3 3 0 3 6 23 35 39 52 61 61 61 65 48
6 3 0 3 0 0 0 0 3 0 0 0 6 3 6 6 3 3 3 0 0 0 0 0 0 0 0 0 0 0 0 0 0 0 0 0 0 0 0 3 3 10 13 16 23 32 32 39 29
10 16 6 6 6 0 0 0 0 0 0 6 3 3 6 3 3 3 3 0 0 0 0 0 0 0 0 0 0 0 0 0 0 0 0 0 0 0 0 0 0 3 3 3 0 13 13 19 6
10 13 13 6 6 0 0 3 3 3 3 10 6 3 0 3 3 3 3 0 0 0 0 0 0 0 0 0 0 0 0 0 0 0 0 0 0 0 0 0 0 3 0 0 0 6 6 6 3
6 3 0 3 3 3 3 3 3 3 3 10 6 0 0 0 3 3 3 3 0 0 0 0 0 0 0 0 0 0 0 0 0 0 0 0 0 0 0 0 0 3 0 0 0 3 3 3 0
6 0 0 6 3 0 0 0 3 3 3 3 0 0 0 3 3 3 3 3 3 0 0 0 0 0 0 0 0 0 0 0 0 0 0 0 0 0 0 0 0 0 0 0 0 0 0 0 0
3 3 3 3 0 0 0 0 0 3 3 3 0 0 0 3 3 3 3 3 3 0 0 0 0 0 0 0 0 0 0 0 0 0 0 0 0 0 0 0 0 0 0 0 0 0 0 0 0
0 0 0 3 0 0 0 0 0 3 3 0 0 0 0 3 3 3 3 3 0 0 0 0 0 0 0 0 0 0 0 0 0 0 0 0 0 0 0 0 0 0 0 0 0 0 0 0 0
0 0 0 0 0 0 0 0 3 3 3 0 0 0 0 0 3 3 0 0 0 0 0 0 0 0 0 0 0 0 0 0 0 0 0 0 0 0 0 0 0 0 0 0 0 0 0 0 0
0 0 0 0 0 0 0 0 3 3 0 0 0 0 0 0 0 0 0 0 0 0 0 0 0 0 0 0 0 0 0 0 0 0 0 0 0 0 0 0 0 0 0 0 0 0 0 0 0
0 0 0 0 0 0 0 0 0 0 0 0 0 0 0 0 0 0 0 0 0 0 0 0 0 0 0 0 0 0 0 0 0 0 0 0 0 0 0 0 0 0 0 0 0 0 0 0 0
0 0 0 0 0 0 0 0 0 0 0 0 0 0 0 0 0 0 0 0 0 0 0 0 0 0 0 0 0 0 0 0 0 0 0 0 0 0 0 0 0 0 0 0 0 0 0 0 0
0 0 0 0 0 0 0 0 0 0 0 0 0 0 0 0 0 0 0 0 0 0 0 0 0 0 0 0 0 0 0 0 0 0 0 0 0 0 0 0 0 0 0 0 0 0 0 0 0
0 0 0 0 0 0 0 0 0 0 0 0 0 0 0 0 0 0 0 0 0 0 0 0 0 0 0 0 0 0 0 0 0 0 0 0 0 0 0 0 0 0 0 0 0 0 0 0 0
0 0 0 0 0 0 0 0 0 0 0 0 0 0 0 0 0 0 0 0 0 0 0 0 0 0 0 0 0 0 0 0 0 0 0 0 0 0 0 0 0 0 0 0 0 0 0 0 0
0 0 0 0 0 0 0 0 0 0 0 0 0 0 0 0 0 0 0 0 0 0 0 0 0 0 0 0 0 0 0 0 0 0 0 0 0 0 0 0 0 0 0 0 0 0 0 0 0
0 0 0 0 0 0 0 0 0 0 0 0 0 0 0 0 0 0 0 0 0 0 0 0 0 0 0 0 0 0 0 0 0 0 0 0 0 0 0 0 0 0 0 0 0 0 0 0 0
0 0 0 0 0 0 0 0 0 0 0 0 0 0 0 0 0 0 0 0 0 0 0 0 0 0 0 0 0 0 0 0 0 0 0 0 0 0 0 0 0 0 0 0 0 0 0 0 0
0 0 0 0 0 0 0 0 0 0 0 0 0 0 0 0 0 0 0 0 0 0 0 0 0 0 0 0 0 0 0 0 0 0 0 0 0 0 0 0 0 0 0 0 0 0 0 0 0
0 0 0 0 0 0 0 0 0 0 0 0 0 0 0 0 0 0 0 0 0 0 0 0 0 0 0 0 0 0 0 0 0 0 0 0 0 0 0 0 0 0 0 0 0 0 0 0 0
0 0 0 0 0 0 0 0 0 0 0 0 0 0 0 0 0 0 0 0 0 0 0 0 0 0 0 0 0 0 0 0 0 0 0 0 0 0 0 0 0 0 0 0 0 0 0 0 0

GEFSSGP_con_cape1000_114.txt.gz
Probability
81 61 48 16 3 0 0 0 0 0 0 0 0 0 0 0 0 0 3 6 23 26 29 55 61 58 48 55 61 61 71 74 74 81 81 77 81 84 90 90 97 94 94 94 94 90 90 94 87
65 58 23 6 0 0 0 0 0 0 0 0 0 0 0 0 0 3 3 13 29 29 35 42 61 58 52 58 61 55 65 71 68 71 71 81 71 84 84 87 87 94 90 90 94 94 94 90 90
61 45 13 0 0 0 0 0 0 0 0 0 0 0 0 0 0 3 10 26 23 19 32 39 61 55 52 48 55 52 58 65 65 65 61 68 74 74 77 77 87 81 81 87 90 87 90 87 84
61 19 0 0 0 0 0 0 0 0 0 0 0 0 0 3 6 6 16 23 23 23 29 29 55 42 29 26 29 42 42 45 52 45 42 48 52 55 55 68 74 81 81 81 77 81 84 81 84
23 6 0 0 0 0 0 0 0 0 0 3 0 0 0 6 10 13 16 16 13 10 16 16 42 39 32 23 23 23 19 23 29 26 26 32 35 35 35 39 58 71 71 68 84 77 74 74 87
10 0 0 0 0 0 0 0 0 0 0 3 0 0 0 6 13 13 16 10 10 10 10 13 35 39 29 29 26 16 16 16 19 23 23 19 26 23 32 39 42 65 68 71 81 87 81 81 84
6 0 0 0 0 0 0 0 0 0 0 6 3 0 0 6 10 13 13 6 10 10 10 10 10 16 26 29 29 26 13 19 19 10 16 13 13 16 19 29 29 52 58 61 68 68 74 81 71
3 0 0 0 0 0 0 0 0 0 0 3 0 0 0 3 3 10 6 6 6 6 3 3 6 6 3 3 13 19 19 13 13 10 10 10 10 10 13 13 26 32 45 52 42 45 55 68 65
0 0 0 0 0 0 0 0 0 0 3 3 6 0 0 6 6 6 3 3 3 3 3 3 3 3 3 3 3 3 3 3 3 3 3 3 3 6 6 6 13 16 19 39 42 39 35 39 52
3 0 0 0 0 0 0 0 3 3 3 3 3 3 3 6 6 3 3 3 3 3 3 3 3 3 3 3 3 3 3 3 0 0 0 0 0 0 6 6 10 10 13 19 32 29 32 26 19
6 0 0 3 0 0 0 3 3 3 3 3 3 3 3 3 3 3 3 3 3 3 3 3 3 3 3 3 0 0 0 0 0 0 0 0 0 0 3 3 3 6 3 3 6 6 13 13 16
6 6 6 16 6 3 3 3 0 3 0 0 3 3 6 3 3 3 3 3 3 0 3 3 3 3 0 0 0 0 0 0 0 0 0 0 0 0 0 0 3 3 0 3 3 3 6 6 3
6 6 10 16 16 10 3 3 0 0 3 3 3 3 6 3 3 3 3 3 0 0 0 3 0 0 0 0 0 0 0 0 0 0 0 0 0 0 0 0 0 0 0 0 0 3 0 0 3
10 0 0 0 6 6 0 0 3 3 6 3 3 3 0 3 3 3 3 0 0 0 0 0 0 0 0 0 0 0 0 0 0 0 0 0 0 0 0 0 0 0 0 0 0 0 0 0 0
3 0 0 0 3 3 0 0 0 3 6 3 0 3 0 0 0 3 3 0 0 0 0 0 0 0 0 0 0 0 0 0 0 0 0 0 0 0 0 0 0 0 0 0 0 0 0 0 0
3 0 0 0 3 3 0 0 0 3 3 3 3 0 0 0 0 3 3 0 0 0 0 0 0 0 0 0 0 0 0 0 0 0 0 0 0 0 0 0 0 0 0 0 0 0 0 0 0
0 0 0 0 0 0 0 0 0 3 3 0 0 0 0 0 0 3 3 0 0 0 0 0 0 0 0 0 0 0 0 0 0 0 0 0 0 0 0 0 0 0 0 0 0 0 0 0 0
0 0 0 0 0 0 0 0 0 3 3 0 0 0 0 0 0 3 3 3 0 0 0 0 0 0 0 0 0 0 0 0 0 0 0 0 0 0 0 0 0 0 0 0 0 0 0 0 0
0 0 0 0 0 0 0 0 0 3 3 0 0 0 0 0 0 3 0 0 0 0 0 0 0 0 0 0 0 0 0 0 0 0 0 0 0 0 0 0 0 0 0 0 0 0 0 0 0
0 0 0 0 0 0 0 0 0 0 0 0 0 0 0 0 0 0 0 0 0 0 0 0 0 0 0 0 0 0 0 0 0 0 0 0 0 0 0 0 0 0 0 0 0 0 0 0 0
0 0 0 0 0 0 0 0 0 0 0 0 0 0 0 0 0 0 0 0 0 0 0 0 0 0 0 0 0 0 0 0 0 0 0 0 0 0 0 0 0 0 0 0 0 0 0 0 0
0 0 0 0 0 0 0 0 0 0 0 0 0 0 0 0 0 0 0 0 0 0 0 0 0 0 0 0 0 0 0 0 0 0 0 0 0 0 0 0 0 0 0 0 0 0 0 0 0
0 0 0 0 0 0 0 0 0 0 0 0 0 0 0 0 0 0 0 0 0 0 0 0 0 0 0 0 0 0 0 0 0 0 0 0 0 0 0 0 0 0 0 0 0 0 0 0 0
0 0 0 0 0 0 0 0 0 0 0 0 0 0 0 0 0 0 0 0 0 0 0 0 0 0 0 0 0 0 0 0 0 0 0 0 0 0 0 0 0 0 0 0 0 0 0 0 0
0 0 0 0 0 0 0 0 0 0 0 0 0 0 0 0 0 0 0 0 0 0 0 0 0 0 0 0 0 0 0 0 0 0 0 0 0 0 0 0 0 0 0 0 0 0 0 0 0
0 0 0 0 0 0 0 0 0 0 0 0 0 0 0 0 0 0 0 0 0 0 0 0 0 0 0 0 0 0 0 0 0 0 0 0 0 0 0 0 0 0 0 0 0 0 0 0 0
0 0 0 0 0 0 0 0 0 0 0 0 0 0 0 0 0 0 0 0 0 0 0 0 0 0 0 0 0 0 0 0 0 0 0 0 0 0 0 0 0 0 0 0 0 0 0 0 0
0 0 0 0 0 0 0 0 0 0 0 0 0 0 0 0 0 0 0 0 0 0 0 0 0 0 0 0 0 0 0 0 0 0 0 0 0 0 0 0 0 0 0 0 0 0 0 0 0
0 0 0 0 0 0 0 0 0 0 0 0 0 0 0 0 0 0 0 0 0 0 0 0 0 0 0 0 0 0 0 0 0 0 0 0 0 0 0 0 0 0 0 0 0 0 0 0 0
0 0 0 0 0 0 0 0 0 0 0 0 0 0 0 0 0 0 0 0 0 0 0 0 0 0 0 0 0 0 0 0 0 0 0 0 0 0 0 0 0 0 0 0 0 0 0 0 0

GEFSSGP_con_cape1000_120.txt.gz
Probability
87 77 71 61 45 13 0 0 0 0 0 0 0 0 0 0 0 3 26 19 13 10 10 23 45 32 29 29 35 35 45 52 52 58 65 65 65 77 74 74 84 84 81 84 90 94 90 90 87
81 74 65 55 26 0 0 0 0 0 0 3 0 0 0 0 3 10 13 19 16 10 10 16 35 35 29 29 26 26 23 35 48 45 45 42 45 52 58 58 68 71 74 77 84 87 84 87 81
74 71 58 42 3 0 0 0 0 0 3 0 0 0 0 3 3 10 13 10 10 6 6 13 32 35 26 26 26 26 29 39 35 29 29 32 35 32 39 48 48 58 68 68 74 84 77 81 84
77 74 48 16 0 0 0 0 0 0 0 3 3 0 3 10 10 10 6 10 6 3 3 13 26 32 29 29 19 16 16 13 13 19 23 23 26 32 19 23 35 52 52 65 68 68 74 71 71
74 71 29 0 0 0 3 0 6 3 0 3 3 0 10 16 13 6 6 10 6 3 3 10 32 29 26 16 19 13 10 10 10 6 13 16 16 10 16 16 26 35 48 52 61 58 61 71 71
81 58 3 0 0 0 0 3 10 3 0 3 3 3 10 19 16 13 6 3 0 3 6 13 32 35 23 16 16 13 10 6 6 6 10 13 10 10 10 10 13 19 29 39 42 35 42 39 65
77 39 0 0 0 3 0 3 3 3 0 3 6 3 6 16 16 13 10 6 6 6 0 3 3 10 13 10 10 16 16 10 10 6 3 6 13 13 13 13 10 10 16 35 39 29 32 52 52
71 52 0 0 3 0 6 3 3 3 6 6 6 3 6 16 16 13 13 13 6 3 3 3 3 3 3 3 6 6 10 6 3 3 3 3 3 10 13 10 13 6 13 19 19 23 26 29 29
71 45 0 0 3 3 10 6 3 3 10 13 10 6 6 16 16 16 16 10 10 6 3 3 3 3 3 3 3 6 3 3 3 3 3 0 0 3 3 6 10 10 10 13 16 19 13 19 23
77 23 0 3 10 10 13 6 6 6 6 10 10 10 10 19 16 13 10 6 10 6 3 3 3 3 3 3 3 3 3 3 3 3 3 3 0 0 0 6 6 10 3 3 10 10 10 10 13
71 32 29 35 26 23 13 13 10 6 3 3 3 6 16 19 16 13 13 6 10 3 3 3 3 3 3 3 3 3 3 3 3 3 3 0 0 0 3 6 3 6 3 0 0 10 3 6 13
55 52 45 39 26 29 19 13 10 10 6 3 3 3 10 16 13 13 13 6 3 3 3 3 3 3 3 3 3 3 3 3 3 0 0 0 0 0 0 3 6 10 6 6 0 6 6 6 3
48 39 55 45 39 35 19 13 16 16 13 6 6 6 13 16 13 13 10 3 3 3 3 3 3 3 3 3 3 3 3 3 0 0 0 0 0 0 0 0 3 6 10 3 10 10 6 6 3
39 61 52 39 39 35 26 16 13 13 13 10 6 10 10 10 13 10 10 3 3 3 3 3 3 3 3 3 3 3 3 0 0 0 0 0 3 0 3 3 0 3 6 6 3 3 3 10 3
48 35 23 26 23 26 10 10 6 6 10 6 10 13 10 10 16 13 6 3 3 3 3 3 3 3 3 3 0 0 0 0 0 0 0 0 0 3 3 3 0 3 3 6 0 3 6 6 3
39 13 3 13 19 16 10 3 0 3 6 6 10 13 16 13 16 10 6 3 3 3 3 3 3 3 3 3 0 0 0 0 0 0 0 0 0 0 3 6 6 6 6 6 10 0 3 10 10
6 0 3 3 16 10 10 3 0 0 3 6 6 13 13 10 13 10 6 3 3 3 3 3 0 3 0 0 0 0 0 0 0 0 0 0 0 0 3 6 6 6 6 6 3 0 0 6 10
0 0 0 0 6 6 3 0 0 3 6 6 6 13 6 10 13 6 6 3 3 3 3 0 0 0 0 0 0 0 0 0 0 0 0 0 0 0 3 6 3 6 6 3 6 6 10 6 3
0 0 0 0 3 6 0 0 3 0 3 6 6 6 10 6 6 6 6 3 3 3 3 0 0 0 0 0 0 0 0 0 0 0 0 0 0 0 0 3 6 6 3 3 6 10 6 6 3
0 0 0 0 3 0 0 0 3 10 6 6 6 3 3 0 3 10 6 3 3 3 0 0 0 0 0 3 0 0 0 0 0 0 0 0 0 0 0 0 3 6 10 6 6 6 13 6 3
0 0 0 0 0 0 0 0 0 3 3 6 3 10 3 3 3 6 3 3 3 3 0 0 0 0 0 0 0 0 0 0 0 0 0 0 0 3 0 0 3 6 3 16 6 6 10 10 6
0 0 0 0 0 0 0 0 0 0 0 3 10 6 6 3 6 6 3 3 3 3 0 0 0 0 0 0 0 0 0 0 0 0 0 0 0 3 3 3 3 3 3 3 3 3 10 10 13
0 0 0 0 0 0 0 0 0 0 0 0 0 6 6 6 6 6 3 3 3 0 0 0 0 0 0 0 0 0 0 0 0 0 0 0 0 3 3 3 3 3 6 3 3 3 3 10 6
0 0 0 0 0 0 0 0 0 0 0 0 0 0 3 3 3 3 3 0 0 0 0 0 0 0 0 0 0 0 0 0 0 0 0 0 0 0 3 3 3 3 3 3 3 3 3 3 6
0 0 0 0 0 0 0 0 0 0 0 0 0 0 0 3 3 3 0 0 0 0 0 0 0 0 0 0 0 0 0 0 0 0 0 0 0 0 3 3 0 0 0 0 0 0 6 0 3
0 0 0 0 0 0 0 0 0 0 0 0 0 0 0 0 6 3 0 0 0 0 0 0 0 0 0 0 0 0 0 0 0 0 0 0 0 0 0 0 0 0 0 0 0 0 0 0 0
0 0 0 0 0 0 0 0 0 0 0 0 0 0 0 0 0 0 0 0 0 0 0 0 0 0 0 0 0 0 0 0 0 0 0 0 0 0 0 0 0 0 0 0 0 0 0 3 3
0 0 0 0 0 0 0 0 0 0 0 0 0 0 0 0 0 0 0 0 0 0 0 0 0 0 0 0 0 0 0 0 0 0 0 0 0 0 0 0 0 0 0 0 0 0 0 3 0
0 0 0 0 0 0 0 0 0 0 0 0 0 0 0 0 0 0 0 0 0 0 0 0 0 0 0 0 0 0 0 0 0 0 0 0 0 0 0 0 0 3 3 0 0 0 3 3 3
0 0 0 0 0 0 0 0 0 0 0 0 0 0 0 0 0 0 0 0 0 0 0 0 0 0 0 0 0 0 0 0 0 0 0 0 0 0 0 0 0 0 3 3 3 3 3 3 3

GEFSSGP_con_cape1000_126.txt.gz
Probability
90 84 90 97 94 71 3 0 0 0 0 0 0 3 3 3 13 16 35 16 26 23 29 42 55 42 35 32 26 23 26 29 29 35 42 35 42 42 55 55 55 61 71 77 74 87 84 84 84
94 94 94 97 74 10 0 0 0 0 0 0 0 3 3 3 3 6 23 26 16 23 16 19 39 32 26 23 23 16 19 23 19 26 26 19 23 29 39 42 39 45 55 61 74 74 81 74 74
94 87 94 94 52 6 0 0 0 0 0 0 0 0 3 3 3 10 23 10 6 10 10 32 39 29 29 23 16 13 13 16 6 3 13 10 13 16 19 32 32 42 39 48 68 68 65 71 68
97 90 90 81 10 0 0 0 0 0 0 0 0 3 6 6 3 13 3 6 6 10 13 32 39 32 26 23 19 13 13 10 3 3 3 6 3 13 10 10 19 32 32 42 52 61 61 61 58
97 97 90 39 6 6 0 0 0 0 0 0 3 3 3 10 10 6 6 3 6 6 16 19 39 32 23 19 13 13 10 6 6 3 3 3 3 3 6 0 10 23 35 26 29 42 48 45 39
97 94 61 13 3 0 0 0 0 0 0 0 3 3 6 6 6 6 6 6 6 10 13 13 42 32 19 16 6 10 3 6 6 6 6 3 3 6 10 6 6 10 16 23 32 42 35 42 29
94 84 45 6 6 10 3 0 0 3 0 0 0 3 13 10 10 6 6 6 10 10 6 6 10 16 26 23 16 13 6 3 3 6 6 6 6 6 6 6 3 6 13 19 26 26 35 35 39
90 74 39 16 3 3 3 0 0 0 0 0 0 3 10 16 10 13 6 10 10 3 3 3 3 3 6 6 16 3 6 6 6 6 10 6 6 10 6 6 6 6 10 13 13 16 23 23 35
77 74 42 19 16 10 3 0 0 0 0 0 3 3 10 13 10 10 13 13 13 3 3 3 0 3 3 3 6 3 3 10 6 6 6 6 3 3 6 6 13 16 13 13 13 10 29 29 35
84 77 45 42 16 16 6 3 0 6 10 3 3 3 10 6 10 6 10 10 10 13 0 0 3 3 3 3 3 3 3 3 3 3 3 3 0 0 0 0 10 13 10 13 13 10 19 16 6
74 68 61 35 6 3 6 3 3 3 13 6 3 6 10 3 10 6 6 6 10 6 3 3 3 3 3 3 3 3 3 3 3 0 0 0 0 0 3 0 6 6 6 6 3 3 0 3 3
68 55 39 23 13 13 13 10 3 6 10 10 3 3 6 10 6 6 6 3 3 0 3 3 3 3 3 3 3 3 3 3 0 0 0 0 0 0 3 0 3 3 0 0 0 0 0 3 3
55 52 29 19 13 16 26 16 10 3 3 3 3 3 6 10 6 6 6 3 3 3 3 3 3 3 3 3 3 3 3 0 0 0 0 0 0 0 0 0 0 0 3 3 3 3 3 3 3
35 35 19 16 26 23 23 16 10 10 3 3 3 3 6 6 6 6 6 3 0 3 3 3 3 3 3 3 3 0 3 3 0 0 0 0 0 0 0 0 0 0 0 3 0 6 3 3 3
19 16 6 16 13 13 16 16 10 10 6 3 3 6 10 6 6 6 3 3 0 3 3 3 3 3 3 3 3 0 0 0 0 0 0 0 0 0 0 3 3 0 0 0 0 0 6 3 3
10 3 6 10 10 13 16 10 10 10 10 10 6 6 10 10 10 10 6 3 0 0 3 3 3 3 3 0 0 0 0 0 0 0 0 0 0 0 0 3 3 3 0 0 0 0 3 3 3
0 0 0 3 3 13 13 3 13 6 6 13 10 6 13 10 6 3 0 0 0 3 3 3 3 3 3 0 0 0 0 0 0 0 0 0 0 0 0 3 3 3 3 3 0 0 0 3 3
0 0 0 0 0 0 3 3 0 6 6 6 6 6 3 3 3 3 0 0 3 3 3 3 3 3 0 3 0 0 3 0 0 0 0 0 0 0 0 0 3 3 3 3 0 0 0 0 3
0 0 0 0 3 0 0 0 0 3 3 3 3 6 6 3 6 6 3 3 3 3 3 3 3 0 0 3 0 3 3 0 0 0 0 0 0 0 0 0 0 3 0 0 0 0 0 0 0
0 0 0 0 0 0 0 0 0 6 3 3 3 6 6 6 6 0 3 3 3 3 3 3 0 0 3 3 3 0 0 0 0 0 0 0 0 0 0 0 0 0 0 0 0 0 0 0 0
0 0 0 0 0 0 0 0 0 0 6 3 3 6 6 10 6 3 6 6 3 3 3 3 0 0 0 0 0 0 0 0 0 0 0 0 0 0 0 0 0 0 0 0 0 0 0 0 0
0 0 0 0 0 0 0 0 0 3 3 3 3 6 6 6 6 6 6 6 6 3 3 0 0 0 0 0 0 0 0 0 0 0 0 0 0 0 0 0 0 0 0 0 3 3 3 3 3
0 0 0 0 0 0 0 0 0 0 0 3 3 0 3 6 10 6 6 6 6 3 3 0 0 0 0 0 0 0 0 0 0 0 0 0 0 3 0 3 3 0 3 0 0 3 3 3 3
0 0 0 0 0 0 0 0 0 0 0 3 6 3 3 6 6 10 6 6 6 3 0 0 0 0 0 0 0 0 0 0 0 0 0 0 0 0 0 0 3 3 3 3 0 3 3 3 3
0 0 0 0 0 0 0 0 0 0 0 0 3 3 3 3 6 6 6 6 6 0 0 0 0 0 0 0 0 0 0 0 0 0 0 0 0 0 0 0 0 0 0 0 0 0 3 3 3
0 0 0 0 0 0 0 0 0 0 0 0 0 0 6 3 3 6 6 6 3 0 0 0 0 0 0 0 0 0 0 0 0 0 0 0 0 0 0 0 0 0 0 0 0 0 0 0 0
0 0 0 0 0 0 0 0 0 0 0 0 0 0 0 0 3 3 6 6 3 0 0 0 0 0 0 0 0 0 0 0 0 0 0 0 0 0 0 0 0 0 0 0 0 0 0 0 0
0 0 0 0 0 0 0 0 0 0 0 0 0 0 0 0 0 0 3 6 0 0 0 0 0 0 0 0 0 0 0 0 0 0 0 0 0 0 0 0 0 0 0 0 3 0 0 0 0
0 0 0 0 0 0 0 0 0 0 0 0 0 0 0 0 0 0 0 0 0 0 0 0 0 0 0 0 0 0 0 0 0 0 0 0 0 0 0 0 0 0 0 0 0 0 0 3 0
0 0 0 0 0 0 0 0 0 0 0 0 0 0 0 0 0 0 0 0 0 0 0 0 0 0 0 0 0 0 0 0 0 0 0 0 0 0 0 0 0 0 0 0 0 3 3 3 0

GEFSSGP_con_cape1000_132.txt.gz
Probability
94 84 68 52 16 0 0 0 0 0 0 0 0 0 0 0 0 0 3 6 16 29 58 68 65 48 39 35 32 19 26 26 35 32 32 29 32 39 42 42 39 55 61 65 71 74 77 77 71
81 74 65 29 3 0 0 0 0 0 3 3 3 3 3 0 3 6 6 23 19 16 23 39 48 45 35 29 19 13 19 19 23 26 23 19 16 29 26 39 29 39 48 61 58 61 58 65 68
84 87 55 3 0 0 0 0 0 0 3 3 3 3 3 3 6 3 6 13 10 16 19 35 48 32 29 23 19 16 16 16 10 6 10 6 13 13 16 23 32 35 32 48 48 52 48 55 52
81 58 32 3 0 0 0 0 0 0 0 3 3 3 3 6 3 0 6 10 3 13 19 39 45 35 29 23 16 16 16 16 3 3 3 6 3 3 13 16 16 19 29 32 42 42 42 32 45
71 35 16 0 0 0 0 0 0 0 3 3 3 6 6 3 3 6 6 6 3 13 19 29 42 35 26 19 19 16 16 6 3 3 3 3 3 3 0 3 10 19 23 19 29 39 39 39 42
52 16 3 0 0 0 0 0 0 0 3 3 3 6 3 3 6 10 6 0 0 10 16 29 45 35 29 26 23 13 10 3 3 3 6 6 6 6 6 6 10 13 13 19 26 39 35 32 29
42 10 0 0 0 0 0 0 0 0 3 3 3 6 3 3 3 6 10 6 0 10 19 23 29 29 29 23 23 19 10 3 3 3 6 6 6 10 10 13 10 13 13 16 23 26 32 26 26
39 10 6 0 0 0 0 0 0 0 0 3 3 3 0 0 0 6 10 10 6 13 13 13 16 13 16 19 26 19 10 10 6 6 6 6 6 6 10 10 13 16 13 13 13 23 26 29 32
39 16 3 3 0 0 0 0 0 0 0 3 3 3 0 0 3 6 10 3 6 6 6 10 6 6 3 3 3 13 13 13 10 6 6 10 3 0 0 3 6 10 13 13 16 10 16 26 29
35 13 6 3 3 3 0 0 0 3 3 3 3 3 0 0 6 3 6 3 6 6 6 6 6 3 3 3 3 3 3 3 3 3 3 3 0 0 0 0 6 13 13 10 16 13 10 6 3
42 26 10 10 6 6 3 0 0 3 3 3 3 0 3 6 6 3 6 3 3 6 6 6 3 3 3 3 3 3 3 0 0 0 0 0 0 0 0 0 0 0 0 0 3 3 0 0 0
39 29 23 26 10 10 6 3 0 3 3 3 3 0 3 6 6 6 6 6 0 3 3 3 3 3 3 3 3 0 0 0 0 0 0 0 0 0 0 0 0 0 0 0 0 0 0 0 0
16 16 23 23 13 6 3 3 0 3 3 6 3 3 6 3 3 3 6 6 3 0 0 0 3 3 3 0 0 0 0 0 0 0 0 0 0 0 0 0 0 0 0 0 0 0 0 0 0
6 6 6 6 6 0 0 0 0 3 3 3 3 6 3 3 3 3 6 6 6 0 3 3 3 3 0 0 0 0 0 0 0 0 0 0 0 0 0 0 0 0 0 0 0 0 0 0 0
6 3 3 3 3 0 3 0 0 3 3 3 6 3 3 3 3 3 6 6 3 0 3 3 3 3 0 0 0 0 0 0 0 0 0 0 0 0 0 0 0 0 0 0 0 0 0 0 0
0 0 0 0 0 0 0 0 3 3 3 3 3 6 3 3 3 3 3 3 0 0 0 3 3 0 0 0 0 0 0 0 0 0 0 0 0 0 0 0 0 0 0 0 0 0 0 0 0
0 0 0 0 0 0 0 0 3 3 3 3 3 3 3 3 3 3 3 0 0 0 0 3 0 0 0 0 0 0 0 0 0 0 0 0 0 0 0 0 0 0 0 0 0 0 0 0 0
0 0 0 0 0 0 3 0 0 0 0 0 3 0 0 0 0 0 0 0 0 0 0 0 0 0 0 0 0 0 0 0 0 0 0 0 0 0 0 0 0 0 0 0 0 0 0 0 0
0 0 0 0 0 0 3 3 0 0 0 0 3 0 0 0 0 0 0 0 0 0 0 0 0 0 0 0 0 0 0 0 0 0 0 0 0 0 0 0 0 0 0 0 0 0 0 0 0
0 0 0 0 0 0 0 0 0 0 0 0 3 0 0 0 0 0 0 0 0 0 0 0 0 0 0 0 0 0 0 0 0 0 0 0 0 0 0 0 0 0 0 0 0 0 0 0 0
0 0 0 0 0 0 0 0 0 0 0 0 3 0 0 0 0 0 0 0 0 0 0 0 0 0 0 0 0 0 0 0 0 0 0 0 0 0 0 0 0 0 0 0 0 0 0 0 0
0 0 0 0 0 0 0 0 0 0 0 0 3 0 0 0 0 0 0 0 0 0 0 0 0 0 0 0 0 0 0 0 0 0 0 0 0 0 0 0 0 0 0 0 0 0 0 0 0
0 0 0 0 0 0 0 0 0 0 0 0 0 0 0 0 0 0 0 0 3 0 0 0 0 0 0 0 0 0 0 0 0 0 0 0 0 0 0 0 0 0 0 0 0 0 0 0 0
0 0 0 0 0 0 0 0 0 0 0 0 0 0 0 0 0 0 0 0 3 0 0 0 0 0 0 0 0 0 0 0 0 0 0 0 0 0 0 0 0 0 0 0 0 0 0 0 0
0 0 0 0 0 0 0 0 0 0 0 0 0 0 0 0 0 0 0 3 3 0 0 0 0 0 0 0 0 0 0 0 0 0 0 0 0 0 0 0 0 0 0 0 0 0 0 0 0
0 0 0 0 0 0 0 0 0 0 0 0 0 0 0 3 3 3 3 0 0 0 0 0 0 0 0 0 0 0 0 0 0 0 0 0 0 0 0 0 0 0 0 0 0 0 0 0 0
0 0 0 0 0 0 0 0 0 0 0 0 0 0 0 0 3 0 0 0 0 0 0 0 0 0 0 0 0 0 0 0 0 0 0 0 0 0 0 0 0 0 0 0 0 0 0 0 0
0 0 0 0 0 0 0 0 0 0 0 0 0 0 0 0 0 0 0 0 0 0 0 0 0 0 0 0 0 0 0 0 0 0 0 0 0 0 0 0 0 0 0 0 0 0 0 0 0
0 0 0 0 0 0 0 0 0 0 0 0 0 0 0 0 0 0 0 0 0 0 0 0 0 0 0 0 0 0 0 0 0 0 0 0 0 0 0 0 0 0 0 0 0 0 0 0 0
0 0 0 0 0 0 0 0 0 0 0 0 0 0 0 0 0 0 0 0 0 0 0 0 0 0 0 0 0 0 0 0 0 0 0 0 0 0 0 0 0 0 0 0 0 0 0 0 0

GEFSSGP_con_cape1000_138.txt.gz
Probability
90 65 48 13 3 0 0 0 0 0 0 0 0 0 0 0 0 0 3 3 10 16 39 58 58 55 52 45 32 32 32 29 29 35 35 35 32 32 39 35 42 48 55 61 65 65 74 71 71
74 61 42 0 0 0 0 0 0 0 0 0 0 0 0 3 6 6 6 6 10 13 32 42 52 45 42 32 32 23 23 23 26 19 19 23 26 29 32 32 32 35 42 42 58 65 65 65 68
74 61 23 0 0 0 0 0 0 0 0 3 3 0 0 3 6 6 3 10 6 6 23 32 45 39 32 26 26 23 19 19 16 16 16 13 13 19 23 26 32 29 29 32 45 52 52 58 68
74 29 0 0 0 0 0 0 0 3 3 3 3 3 0 3 6 3 6 6 6 16 16 26 35 35 35 26 23 19 16 16 13 10 6 10 10 16 13 16 19 23 23 26 29 39 42 48 58
26 10 0 0 0 0 0 0 0 3 3 3 3 0 3 3 13 10 6 6 6 10 13 19 39 35 32 26 23 19 16 13 6 6 6 3 3 10 10 13 13 16 23 26 29 29 26 32 39
6 0 0 0 0 0 0 0 0 0 3 3 0 3 3 3 13 10 10 6 6 6 10 19 32 32 32 23 23 16 13 10 6 6 6 6 6 6 6 10 10 16 16 16 23 26 32 32 29
6 3 0 0 0 0 0 0 0 0 3 3 3 0 0 3 10 10 6 6 6 6 6 16 23 26 29 23 16 16 16 13 10 10 6 6 6 10 10 6 10 16 16 19 19 23 26 29 32
6 3 0 0 0 0 3 3 0 0 0 0 3 0 0 0 10 6 6 6 6 6 10 10 19 23 19 13 23 23 16 13 10 6 6 6 6 6 6 6 6 6 10 16 19 19 19 26 26
6 3 0 0 0 3 3 3 3 0 0 0 0 0 0 0 6 3 3 6 6 6 10 10 10 10 6 6 13 19 23 10 6 3 3 3 0 0 0 0 13 6 6 10 13 19 16 19 26
10 3 0 0 0 3 3 3 0 0 0 0 0 0 0 3 6 6 3 6 6 6 10 10 10 6 6 6 6 3 3 3 3 3 0 0 0 0 0 0 0 6 6 3 10 10 6 0 0
19 6 6 6 6 6 3 0 0 0 0 0 0 3 6 3 6 6 6 6 3 3 10 10 6 6 6 6 3 3 3 3 3 0 0 0 0 0 0 0 0 0 0 0 3 3 0 0 0
16 19 16 13 16 19 10 0 0 0 0 0 0 3 3 3 6 6 6 6 6 6 6 6 6 6 6 6 3 3 3 0 0 0 0 0 0 0 0 0 0 0 0 0 0 0 0 0 0
16 13 13 13 10 6 6 0 0 0 0 0 0 3 3 3 6 6 6 6 6 6 6 6 6 6 3 3 3 3 0 0 0 0 0 0 0 0 0 0 0 0 0 0 0 0 0 0 0
13 6 6 0 3 6 3 3 0 0 0 0 0 3 3 3 3 6 6 6 6 6 6 6 6 6 3 3 0 0 0 0 0 0 0 0 0 0 0 0 0 0 0 0 0 0 0 0 0
3 10 0 0 3 3 0 0 0 0 3 0 0 0 3 3 0 3 3 6 6 3 3 3 6 0 0 0 0 0 0 0 0 0 0 0 0 0 0 0 0 0 0 0 0 0 0 0 0
0 0 0 0 0 3 0 0 0 3 3 0 0 0 0 3 0 3 3 6 3 0 0 0 0 0 0 0 0 0 0 0 0 0 0 0 0 0 0 0 0 0 0 0 0 0 0 0 0
0 0 0 0 0 3 3 0 3 3 0 0 0 0 0 0 3 3 3 0 0 0 0 0 0 0 0 0 0 0 0 0 0 0 0 0 0 0 0 0 0 0 0 0 0 0 0 0 0
0 0 0 0 0 0 0 0 3 0 0 0 0 0 0 0 0 3 0 0 0 0 0 0 0 0 0 0 0 0 0 0 0 0 0 0 0 0 0 0 0 0 0 0 0 0 0 0 0
0 0 0 0 0 0 0 0 0 3 0 0 0 0 0 0 0 0 0 0 0 0 0 0 0 0 0 0 0 0 0 0 0 0 0 0 0 0 0 0 0 0 0 0 0 0 0 0 0
0 0 0 0 0 0 0 0 0 0 0 0 0 0 0 0 0 0 0 0 0 0 0 0 0 0 0 0 0 0 0 0 0 0 0 0 0 0 0 0 0 0 0 0 0 0 0 0 0
0 0 0 0 0 0 0 0 0 0 0 0 0 0 0 0 0 0 0 0 0 0 0 0 0 0 0 0 0 0 0 0 0 0 0 0 0 0 0 0 0 0 0 0 0 0 0 0 0
0 0 0 0 0 0 0 0 0 0 0 0 0 0 0 0 0 0 0 0 0 0 0 0 0 0 0 0 0 0 0 0 0 0 0 0 0 0 0 0 0 0 0 0 0 0 0 0 0
0 0 0 0 0 0 0 0 0 0 0 0 0 0 0 0 0 0 0 0 0 0 0 0 0 0 0 0 0 0 0 0 0 0 0 0 0 0 0 0 0 0 0 0 0 0 0 0 0
0 0 0 0 0 0 0 0 0 0 0 0 0 0 0 0 0 0 0 0 0 0 0 0 0 0 0 0 0 0 0 0 0 0 0 0 0 0 0 0 0 0 0 0 0 0 0 0 0
0 0 0 0 0 0 0 0 0 0 0 0 0 0 0 0 0 0 0 0 0 0 0 0 0 0 0 0 0 0 0 0 0 0 0 0 0 0 0 0 0 0 0 0 0 0 0 0 0
0 0 0 0 0 0 0 0 0 0 0 0 0 0 0 0 0 0 0 0 0 0 0 0 0 0 0 0 0 0 0 0 0 0 0 0 0 0 0 0 0 0 0 0 0 0 0 0 0
0 0 0 0 0 0 0 0 0 0 0 0 0 0 0 0 0 0 0 0 0 0 0 0 0 0 0 0 0 0 0 0 0 0 0 0 0 0 0 0 0 0 0 0 0 0 0 0 0
0 0 0 0 0 0 0 0 0 0 0 0 0 0 0 0 0 0 0 0 0 0 0 0 0 0 0 0 0 0 0 0 0 0 0 0 0 0 0 0 0 0 0 0 0 0 0 0 0
0 0 0 0 0 0 0 0 0 0 0 0 0 0 0 0 0 0 0 0 0 0 0 0 0 0 0 0 0 0 0 0 0 0 0 0 0 0 0 0 0 0 0 0 0 0 0 0 0
0 0 0 0 0 0 0 0 0 0 0 0 0 0 0 0 0 0 0 0 0 0 0 0 0 0 0 0 0 0 0 0 0 0 0 0 0 0 0 0 0 0 0 0 0 0 0 0 0

GEFSSGP_con_cape1000_144.txt.gz
Probability
94 90 84 81 65 16 0 0 0 3 3 3 3 3 3 3 3 6 23 13 10 29 29 48 58 58 52 52 48 45 42 42 35 42 42 39 39 32 32 32 32 39 42 48 55 61 65 65 68
87 90 81 68 32 0 0 3 3 3 3 3 3 3 3 3 6 13 16 13 13 23 26 26 52 45 45 42 39 39 42 39 29 26 23 29 26 29 29 29 32 42 42 39 45 55 55 61 55
97 94 74 42 3 0 0 0 3 3 3 3 0 3 3 6 6 13 16 10 13 23 26 39 48 42 35 32 32 32 26 19 16 16 16 13 13 16 16 23 23 32 35 39 39 42 45 48 58
90 84 71 23 3 3 3 6 6 3 3 3 0 0 6 6 10 3 16 6 13 23 23 29 39 32 29 29 23 23 23 19 16 16 13 13 13 16 16 23 19 19 29 35 35 32 29 39 48
84 65 16 6 3 3 3 10 6 3 3 3 0 0 6 13 6 10 13 10 16 19 23 23 35 32 32 26 23 23 23 16 16 16 16 13 13 13 10 10 10 10 13 16 26 32 32 32 29
90 39 0 0 0 6 10 10 10 3 3 0 0 0 6 16 6 10 13 10 10 13 13 16 26 26 26 23 23 19 19 13 13 10 6 6 3 3 3 6 6 10 10 6 13 19 23 29 29
74 13 0 0 3 6 13 16 10 3 3 3 3 3 6 10 10 6 6 6 6 10 13 16 19 19 23 16 16 16 16 13 13 10 3 3 3 3 0 3 3 10 10 10 6 16 19 26 23
84 13 0 0 0 3 10 10 13 10 10 3 3 3 6 13 10 6 6 6 6 10 10 13 13 13 13 16 16 19 13 6 6 6 3 3 3 0 0 0 3 3 6 10 6 13 19 19 23
58 13 3 0 3 3 6 6 6 13 10 0 0 0 10 16 10 6 6 6 6 6 10 10 10 6 10 6 10 10 13 6 6 3 3 3 0 0 0 0 3 3 3 10 10 10 10 13 13
48 6 3 6 6 10 10 6 13 3 10 6 6 13 13 23 16 10 6 6 6 6 10 10 6 6 6 6 6 6 3 3 0 0 3 0 0 0 0 0 0 3 3 3 3 3 6 3 6
29 6 13 10 3 10 6 13 10 6 6 6 10 13 13 23 19 10 10 10 10 6 6 6 6 10 10 10 6 6 3 3 0 0 0 0 0 0 0 3 0 0 0 3 3 3 0 0 6
29 19 13 13 6 16 13 13 10 3 3 3 10 10 13 19 16 10 10 10 10 13 10 10 6 10 10 6 6 6 6 0 0 0 0 0 0 0 0 3 0 0 0 3 3 3 3 0 0
10 13 10 10 6 10 10 6 10 6 3 6 6 6 10 13 10 10 10 6 10 13 13 10 10 10 10 6 6 6 6 0 0 3 3 0 0 0 0 3 3 0 0 0 0 0 0 0 0
6 3 6 6 3 10 6 10 3 6 6 6 6 6 6 13 6 6 10 10 10 10 10 10 10 10 6 6 6 6 6 6 0 3 0 0 0 0 0 0 3 0 0 0 0 0 3 0 0
3 3 3 0 0 3 3 0 3 3 6 6 6 3 6 3 3 10 10 10 10 10 10 10 10 6 6 6 6 6 6 3 0 0 0 0 0 0 0 0 0 3 0 0 0 0 3 0 0
0 0 0 0 0 0 0 0 0 10 6 10 3 0 6 6 3 6 13 10 10 13 10 6 6 6 3 3 3 3 3 3 3 3 0 0 0 0 0 0 0 0 3 0 0 0 3 3 3
0 0 0 0 0 0 0 0 0 6 10 10 6 3 3 13 6 6 10 10 13 10 10 6 6 3 3 3 0 0 0 0 3 0 0 0 0 0 0 0 0 0 0 3 3 0 3 3 3
0 0 0 0 0 0 0 0 0 3 6 6 6 0 6 6 10 6 10 10 16 13 6 3 3 0 0 0 0 0 0 0 0 0 0 0 0 0 0 0 0 0 0 0 3 3 3 3 6
0 0 0 0 0 0 0 0 0 3 6 3 3 3 6 6 6 6 10 13 6 6 6 3 3 0 0 0 0 0 0 0 0 0 0 0 0 0 0 0 0 0 0 0 0 3 3 3 3
0 0 0 0 0 0 0 0 0 3 3 0 0 3 10 6 3 3 6 10 10 10 6 6 6 0 0 0 0 0 0 0 0 0 0 0 0 0 0 0 0 0 0 0 0 0 3 3 3
0 0 0 0 0 0 0 0 0 0 3 6 3 6 10 10 6 6 10 6 10 6 6 6 3 3 0 0 0 0 0 0 0 0 0 0 0 0 0 0 0 0 0 0 0 0 0 3 3
0 0 0 0 0 0 0 0 0 0 0 3 6 6 6 3 6 6 6 6 6 6 3 3 3 3 3 0 0 0 3 3 0 3 3 0 0 0 0 0 0 0 0 0 0 0 0 3 0
0 0 0 0 0 0 0 0 0 0 0 0 10 10 6 10 3 3 3 6 6 6 3 0 0 0 0 0 0 3 0 0 0 0 0 0 0 0 0 0 0 0 0 0 0 0 0 0 6
0 0 0 0 0 0 0 0 0 0 0 0 0 6 6 6 3 3 3 3 6 3 3 0 0 0 0 0 0 0 0 0 0 0 0 0 0 0 0 0 0 0 0 0 0 0 0 0 10
0 0 0 0 0 0 0 0 0 0 0 0 0 3 10 10 3 3 3 6 3 6 3 0 0 0 0 0 0 0 0 0 0 0 0 0 0 0 0 0 0 0 0 0 0 0 0 3 6
0 0 0 0 0 0 0 0 0 0 0 0 0 3 6 13 3 3 0 0 3 3 3 0 0 0 0 0 0 0 0 0 0 0 0 0 0 0 0 0 3 3 3 0 3 3 6 0 0
0 0 0 0 0 0 0 0 0 0 0 0 3 6 6 3 0 3 0 0 0 3 0 3 0 0 0 0 0 0 0 0 0 0 0 0 0 0 0 0 0 0 0 0 0 0 0 0 3
0 0 0 0 0 0 0 0 0 0 0 0 0 0 3 3 0 0 0 0 0 3 6 0 0 0 0 0 0 0 0 0 0 0 0 0 0 0 0 0 0 0 0 0 0 0 0 0 3
0 0 0 0 0 0 0 0 0 0 0 0 0 0 0 0 0 0 0 3 3 0 3 0 0 0 0 0 0 0 0 0 0 0 0 0 0 0 0 0 0 0 0 0 0 0 0 6 3
0 0 0 0 0 0 0 0 0 0 0 0 0 0 0 0 0 0 0 0 3 3 3 0 0 0 0 0 0 0 0 0 0 0 0 0 0 0 0 0 0 0 0 0 0 0 0 6 6

GEFSSGP_con_cape1000_150.txt.gz
Probability
90 94 97 97 94 55 10 0 0 3 0 0 0 3 3 3 10 23 32 35 35 29 39 55 65 55 48 45 48 48 42 39 45 39 39 39 35 26 26 32 42 35 42 45 42 39 48 48 55
90 97 97 100 74 16 0 3 6 6 0 0 0 3 6 3 10 10 26 39 32 29 26 32 45 45 45 48 48 42 32 32 29 23 23 19 19 19 19 29 32 42 39 39 35 35 42 52 48
90 94 100 100 35 3 0 3 3 3 3 0 0 3 6 6 3 16 23 32 32 29 29 35 42 45 45 45 42 29 23 23 23 19 16 19 19 16 19 19 19 26 35 32 32 29 29 39 39
97 97 97 65 19 6 0 0 3 10 6 0 3 3 3 6 13 10 16 19 26 26 26 42 42 35 39 35 29 26 19 19 16 16 19 16 13 16 16 13 10 10 10 23 29 29 29 32 26
97 97 84 26 3 6 6 0 3 10 6 3 3 0 0 10 10 10 16 16 23 26 29 29 29 26 29 23 23 23 19 16 16 16 16 16 13 6 6 10 10 3 10 6 16 26 23 29 29
97 94 39 6 3 6 10 3 10 6 3 0 0 0 3 13 10 6 16 16 23 19 23 29 32 29 26 23 23 23 19 16 16 13 13 6 6 3 6 10 10 10 3 6 6 13 19 16 26
94 77 10 3 16 6 10 6 10 10 3 0 0 0 3 13 13 10 6 3 19 16 16 13 29 29 29 23 23 19 16 13 10 6 3 3 3 3 3 0 3 3 3 6 6 6 16 19 19
94 81 10 3 6 6 16 6 6 10 0 0 0 0 3 6 6 6 6 6 10 13 16 16 13 13 16 19 16 19 19 10 3 3 6 6 3 3 3 3 6 0 0 6 3 6 6 10 13
65 71 13 6 6 6 10 3 10 6 6 3 3 3 10 10 6 6 6 6 10 13 10 10 13 6 13 13 13 23 19 13 10 3 10 10 0 0 0 3 6 6 0 3 6 3 10 10 13
68 55 6 10 6 16 10 10 6 6 10 10 6 6 6 3 3 6 6 6 6 6 6 10 10 6 10 10 10 13 6 3 3 0 0 0 0 0 0 3 6 6 6 3 6 13 13 6 0
32 6 13 6 3 10 13 10 3 3 6 6 10 10 3 3 3 3 6 6 6 6 6 6 6 6 6 10 10 10 6 3 0 0 0 0 0 0 0 0 0 0 0 0 3 3 3 0 0
19 10 6 6 10 6 10 10 3 0 6 3 6 6 6 3 3 3 6 3 10 6 6 6 3 3 3 6 10 3 3 0 0 0 0 0 0 0 0 0 0 0 0 0 0 3 0 0 0
10 10 10 6 3 3 0 0 3 0 10 10 10 6 10 3 6 0 3 3 6 6 6 6 6 3 3 3 6 3 3 0 0 0 0 0 0 0 0 0 0 0 0 0 0 0 0 0 0
3 13 10 3 3 3 0 0 0 3 6 6 6 3 10 10 6 0 0 3 3 6 6 6 6 6 6 6 6 3 3 3 0 0 0 0 0 0 0 0 0 0 0 0 0 0 0 0 0
3 3 0 3 3 3 0 0 0 6 6 6 6 3 3 10 3 3 3 3 6 10 10 6 10 10 10 6 3 3 3 3 3 0 0 0 0 0 0 0 0 0 0 0 0 0 0 0 0
0 3 0 3 0 0 0 0 0 6 6 6 3 3 3 6 3 6 6 6 6 13 13 10 10 10 6 6 3 3 3 3 3 0 0 0 0 0 0 0 0 0 0 0 0 0 0 0 0
0 0 0 3 0 0 0 0 0 6 6 6 3 3 3 6 3 6 6 6 6 10 10 10 6 6 6 3 3 3 3 3 0 0 0 0 0 0 0 0 0 0 0 0 0 0 0 0 0
0 0 0 0 0 0 0 0 0 0 3 6 3 3 6 10 6 6 10 10 10 10 6 6 6 6 3 3 0 0 0 0 0 0 0 0 0 0 0 0 0 0 0 0 0 0 0 0 0
0 0 0 0 0 0 0 0 0 0 3 3 0 6 6 6 13 6 6 10 10 6 3 3 3 0 0 0 0 0 0 0 0 0 0 0 0 0 0 0 0 0 0 0 0 0 0 0 0
0 0 0 0 0 0 0 0 0 0 0 3 3 3 3 3 6 6 10 6 6 6 3 3 3 0 0 0 0 3 3 3 0 0 0 0 0 0 0 0 0 0 0 0 0 0 0 0 0
0 0 0 0 0 0 0 3 3 3 3 6 3 3 3 6 6 6 13 10 13 6 6 3 3 0 0 0 0 0 0 0 0 0 0 0 0 0 0 0 0 0 0 0 0 0 0 0 0
0 0 0 0 0 0 0 0 0 3 3 3 3 3 6 6 6 13 13 6 10 6 6 6 3 3 0 0 0 0 0 0 0 0 0 0 0 0 0 0 0 0 0 0 0 0 0 0 0
0 0 0 0 0 0 0 0 0 0 0 3 0 0 6 6 6 16 10 10 10 6 6 6 3 0 0 0 0 0 0 0 0 0 0 0 0 0 0 0 0 0 0 0 0 0 0 0 0
0 0 0 0 0 0 0 0 0 0 0 3 3 3 6 10 10 6 13 13 6 6 6 0 0 0 0 0 0 0 0 0 0 0 0 0 0 0 0 0 0 0 0 0 0 0 0 0 0
0 0 0 0 0 0 0 0 0 0 0 0 3 3 6 6 3 13 10 10 6 6 6 3 3 3 3 0 0 0 3 3 3 0 0 0 0 0 0 0 0 0 0 0 0 0 0 0 0
0 0 0 0 0 0 0 0 0 0 0 0 0 10 10 13 10 13 13 13 6 10 10 3 3 3 3 3 3 0 3 3 3 3 0 0 0 0 0 0 0 0 0 0 0 0 0 0 0
0 0 0 0 0 0 0 0 0 0 0 0 3 6 10 10 3 6 10 10 16 10 6 6 3 3 3 3 3 3 3 3 3 3 3 0 0 0 0 0 0 0 0 0 0 0 0 0 0
0 0 0 0 0 0 0 0 0 3 0 0 0 3 3 3 0 3 3 6 10 16 13 3 3 3 3 3 3 3 3 3 3 3 0 0 0 0 0 0 0 0 0 0 0 0 0 0 0
0 0 0 0 0 0 0 0 0 0 0 0 0 0 3 3 0 3 3 6 6 6 6 6 3 3 3 3 3 3 3 3 3 3 0 0 0 0 0 0 0 0 0 0 0 0 0 0 0
0 0 0 0 0 0 0 0 0 0 0 0 3 0 3 3 0 0 3 0 0 3 6 6 3 0 0 3 3 3 3 3 3 3 0 0 0 0 0 0 0 0 0 0 0 0 0 0 0

GEFSSGP_con_cape1000_156.txt.gz
Probability
90 81 65 45 6 0 0 0 0 0 0 3 3 3 3 0 0 0 6 13 16 26 42 52 61 55 55 55 52 55 55 55 52 55 42 39 32 45 45 52 52 58 52 52 48 42 42 45 55
74 77 68 10 0 0 0 0 0 0 0 3 3 3 3 6 6 16 19 19 26 32 35 42 52 48 48 48 48 45 45 48 42 32 26 23 23 29 35 32 32 35 39 39 39 45 39 35 42
77 90 45 3 0 0 0 0 0 0 3 0 0 0 0 6 10 19 16 19 23 29 39 48 52 45 45 45 39 39 32 26 23 16 19 19 16 19 19 19 23 19 26 32 29 32 32 35 32
71 39 6 3 0 0 0 0 0 0 0 0 0 0 3 0 13 23 19 19 19 26 39 42 48 45 42 42 35 32 29 26 19 19 19 19 13 16 13 13 10 16 13 16 19 26 29 26 29
45 23 0 0 0 0 0 0 0 0 0 0 0 0 0 13 16 26 16 19 19 26 32 39 42 39 32 29 26 29 23 23 16 16 19 13 13 10 6 6 6 6 6 10 10 13 16 26 29
16 0 0 0 0 0 0 0 0 0 0 0 0 0 3 13 29 23 19 19 23 23 26 29 39 35 29 29 26 26 23 16 16 19 16 16 16 10 10 10 10 6 6 6 10 10 10 10 10
10 3 0 0 0 0 0 0 0 0 0 0 3 3 3 10 13 23 19 16 16 23 26 26 29 26 32 29 29 26 26 19 19 13 13 13 10 6 10 10 13 10 6 6 10 6 13 13 16
16 3 0 0 0 0 0 3 3 0 0 3 0 0 6 3 6 13 16 16 16 13 19 23 23 23 26 23 29 29 26 23 19 13 10 10 10 6 6 6 10 10 10 6 6 6 13 16 19
13 3 0 0 0 0 0 3 6 3 3 3 3 0 3 3 6 13 13 6 10 10 13 13 16 16 16 16 23 29 26 19 13 10 10 0 0 0 0 0 6 3 6 6 10 10 10 13 10
6 0 0 0 0 0 0 3 3 3 0 3 0 6 6 3 6 10 10 6 10 10 10 10 10 10 10 13 16 10 6 3 3 3 0 0 0 0 0 0 10 10 10 10 10 6 6 3 0
6 3 0 0 0 0 0 3 3 3 0 0 3 13 6 6 6 10 10 6 10 10 10 6 6 6 6 3 10 6 3 3 0 0 0 0 0 0 0 0 3 3 3 0 0 0 3 0 0
3 0 0 0 0 0 0 0 0 0 0 3 3 10 6 0 0 6 6 6 10 10 6 6 6 6 6 6 6 10 0 0 0 0 0 0 0 0 0 0 0 0 0 0 0 0 0 0 0
0 0 0 0 0 0 0 3 0 0 3 3 6 0 3 0 0 3 6 6 3 6 6 6 6 6 6 6 10 3 0 0 0 0 0 0 0 0 0 0 0 0 0 0 0 0 0 0 0
0 0 0 0 0 0 0 0 0 6 6 10 6 3 0 0 0 0 3 6 6 6 6 3 6 3 3 6 3 0 0 0 0 0 0 0 0 0 0 0 0 0 0 0 0 0 0 0 0
3 0 0 0 0 0 0 0 0 6 6 10 6 0 0 0 3 0 3 3 3 6 0 3 3 3 3 0 0 0 0 0 0 0 0 0 0 0 0 0 0 0 0 0 0 0 0 0 0
0 0 0 0 0 0 0 0 0 6 6 6 0 0 0 3 3 3 3 3 3 3 0 0 3 0 0 0 0 0 0 0 0 0 0 0 0 0 0 0 0 0 0 0 0 0 0 0 0
0 0 0 0 0 0 0 0 0 3 6 6 6 3 3 3 3 3 3 3 3 3 0 3 6 3 0 0 0 0 0 0 0 0 0 0 0 0 0 0 0 0 0 0 0 0 0 0 0
0 0 0 0 0 0 0 0 3 3 10 6 6 3 3 6 3 3 0 0 3 3 3 3 3 0 0 0 0 0 0 0 0 0 0 0 0 0 0 0 0 0 0 0 0 0 0 0 0
0 0 0 0 0 0 0 0 0 3 6 6 6 6 6 3 3 0 0 0 3 3 3 3 0 0 0 0 0 0 0 0 0 0 0 0 0 0 0 0 0 0 0 0 0 0 0 0 0
0 0 0 0 0 0 0 0 0 0 3 6 6 6 6 3 0 3 3 3 3 3 3 3 0 0 0 0 0 0 0 0 0 0 0 0 0 0 0 0 0 0 0 0 0 0 0 0 0
0 0 0 0 0 0 0 0 0 0 3 3 6 6 6 3 0 3 3 3 3 3 3 3 0 0 0 0 0 0 0 0 0 0 0 0 0 0 0 0 0 0 0 0 0 0 0 0 0
0 0 0 0 0 0 0 0 0 0 0 0 0 0 0 0 0 3 3 3 3 3 3 0 0 0 0 0 0 0 0 0 0 0 0 0 0 0 0 0 0 0 0 0 0 0 0 0 0
0 0 0 0 0 0 0 0 0 0 0 0 0 0 0 3 3 3 3 3 3 3 0 0 0 0 0 0 0 0 0 0 0 0 0 0 0 0 0 0 0 0 0 0 0 0 0 0 0
0 0 0 0 0 0 0 0 0 0 0 0 3 3 3 3 3 3 3 3 3 0 0 0 0 0 0 0 0 0 0 0 0 0 0 0 0 0 0 0 0 0 0 0 0 0 0 0 0
0 0 0 0 0 0 0 0 0 0 0 0 0 3 3 0 3 0 0 0 0 0 0 0 0 0 0 0 0 0 0 0 0 0 0 0 0 0 0 0 0 0 0 0 0 0 0 0 0
0 0 0 0 0 0 0 0 0 0 0 0 0 0 0 0 0 0 0 0 0 0 0 0 0 0 0 0 0 0 0 0 0 0 0 0 0 0 0 0 0 0 0 0 0 0 0 0 0
0 0 0 0 0 0 0 0 0 0 0 0 0 0 0 0 0 0 0 0 0 0 0 0 0 0 0 0 0 0 0 0 0 0 0 0 0 0 0 0 0 0 0 0 0 0 0 0 0
0 0 0 0 0 0 0 0 0 0 0 0 0 0 0 0 0 0 0 0 0 0 0 0 0 0 0 0 0 0 0 0 0 0 0 0 0 0 0 0 0 0 0 0 0 0 0 0 0
0 0 0 0 0 0 0 0 0 0 0 0 0 0 0 0 0 0 0 0 0 0 0 0 0 0 0 0 0 0 0 0 0 0 0 0 0 0 0 0 0 0 0 0 0 0 0 0 0
0 0 0 0 0 0 0 0 0 0 0 0 0 0 0 0 0 0 0 0 0 0 0 0 0 0 0 0 0 0 0 0 0 0 0 0 0 0 0 0 0 0 0 0 0 0 0 0 0

GEFSSGP_con_cape1000_162.txt.gz
Probability
84 61 29 3 0 0 0 0 0 0 0 0 0 0 0 0 0 0 0 6 16 19 29 42 52 52 52 52 45 48 45 45 42 42 39 32 32 29 39 42 45 48 48 48 45 45 48 55 58
68 61 3 0 0 0 0 0 0 0 0 0 0 0 0 6 13 13 6 13 19 29 35 35 55 48 45 48 45 42 45 48 42 26 26 26 29 29 26 29 29 32 35 35 35 39 42 42 45
71 42 3 0 0 0 0 0 0 0 0 0 3 3 0 13 16 6 13 10 23 29 32 42 45 45 45 42 42 42 42 32 26 26 26 26 13 13 16 23 16 16 16 19 26 29 29 39 39
42 0 0 0 0 0 0 0 0 0 0 0 0 3 3 10 13 13 16 13 26 35 35 42 45 45 42 39 39 35 29 29 19 19 23 13 13 10 10 10 13 13 13 16 16 23 32 32 35
3 0 0 0 0 0 0 0 0 0 0 0 0 0 3 13 16 13 16 23 26 32 35 39 42 45 35 35 29 29 26 23 16 16 13 13 10 6 6 6 10 6 10 10 10 19 16 19 29
0 0 0 0 0 0 0 0 0 0 0 0 0 0 3 16 16 16 16 16 26 29 35 35 39 35 32 32 29 23 23 19 16 19 13 10 6 10 3 6 10 3 3 3 13 16 13 16 16
0 0 0 0 0 0 0 0 0 0 0 0 0 3 10 10 19 16 16 6 16 23 26 26 29 26 29 23 23 23 23 16 19 16 13 13 3 6 6 10 6 6 10 13 13 16 19 16 13
0 0 0 0 0 0 0 0 6 0 0 0 0 3 10 10 10 10 6 6 10 19 19 19 23 23 23 23 23 23 23 19 13 10 6 6 3 3 3 3 3 6 6 10 10 13 13 13 16
0 0 0 0 0 0 0 0 6 0 0 0 0 0 10 10 13 10 6 3 6 16 16 16 13 16 23 23 23 23 23 16 16 3 6 6 0 0 0 0 0 3 6 6 13 16 10 6 6
0 0 0 0 0 0 0 3 0 0 0 0 0 6 10 19 23 10 6 3 6 10 10 6 10 13 6 16 10 10 6 0 0 0 0 0 0 0 0 0 0 3 6 6 10 6 0 0 0
3 0 0 0 0 0 0 0 0 0 0 0 0 6 16 19 13 13 6 3 3 10 10 10 10 10 6 6 0 0 0 0 0 0 0 0 0 0 0 0 0 0 0 0 0 0 0 0 0
3 0 0 0 0 0 0 0 0 0 0 0 0 10 13 10 10 10 3 3 3 6 6 10 10 10 6 3 0 0 0 0 0 0 0 0 0 0 0 0 0 0 0 0 0 0 0 0 0
0 0 0 0 0 0 0 3 0 0 0 3 3 13 6 6 6 6 6 3 3 6 6 6 6 6 3 3 0 0 0 0 0 0 0 0 0 0 0 0 0 0 0 0 0 0 0 0 0
0 0 0 0 0 0 0 0 0 0 3 3 3 0 3 6 3 0 3 6 3 6 6 6 6 3 3 3 0 0 0 0 0 0 0 0 0 0 0 0 0 0 0 0 0 0 0 0 0
0 0 0 0 0 0 0 0 0 0 3 3 3 3 3 3 0 0 0 3 3 3 3 3 3 3 3 3 0 0 0 0 0 0 0 0 0 0 0 0 0 0 0 0 0 0 0 0 0
0 0 0 0 0 0 0 0 0 0 3 3 3 3 3 3 3 0 0 3 3 3 0 0 3 0 0 0 0 0 0 0 0 0 0 0 0 0 0 0 0 0 0 0 0 0 0 0 0
0 0 0 0 0 0 0 0 3 3 3 3 3 3 3 3 3 3 3 3 0 0 0 0 0 0 0 0 0 0 0 0 0 0 0 0 0 0 0 0 0 0 0 0 0 0 0 0 0
0 0 0 0 0 0 0 0 3 3 3 3 3 3 3 3 3 3 0 0 0 0 0 0 0 0 0 0 0 0 0 0 0 0 0 0 0 0 0 0 0 0 0 0 0 0 0 0 0
0 0 0 0 0 0 0 0 0 3 3 3 3 3 3 3 3 3 0 0 0 0 0 0 0 0 0 0 0 0 0 0 0 0 0 0 0 0 0 0 0 0 0 0 0 0 0 0 0
0 0 0 0 0 0 0 0 0 0 3 3 3 0 0 3 3 0 0 3 0 0 0 0 0 0 0 0 0 0 0 0 0 0 0 0 0 0 0 0 0 0 0 0 0 0 0 0 0
0 0 0 0 0 0 0 0 0 0 0 3 0 0 0 0 0 0 0 3 0 0 0 0 0 0 0 0 0 0 0 0 0 0 0 0 0 0 0 0 0 0 0 0 0 0 0 0 0
0 0 0 0 0 0 0 0 0 0 0 0 0 0 3 0 0 0 0 3 3 3 0 0 0 0 0 0 0 0 0 0 0 0 0 0 0 0 0 0 0 0 0 0 0 0 0 0 0
0 0 0 0 0 0 0 0 0 0 0 0 0 0 0 3 0 3 3 3 3 3 3 0 0 0 0 0 0 0 0 0 0 0 0 0 0 0 0 0 0 0 0 0 0 0 0 0 0
0 0 0 0 0 0 0 0 0 0 0 0 0 0 0 0 3 3 3 3 3 3 0 0 0 0 0 0 0 0 0 0 0 0 0 0 0 0 0 0 0 0 0 0 0 0 0 0 0
0 0 0 0 0 0 0 0 0 0 0 0 0 0 0 0 0 3 3 0 0 0 0 0 0 0 0 0 0 0 0 0 0 0 0 0 0 0 0 0 0 0 0 0 0 0 0 0 0
0 0 0 0 0 0 0 0 0 0 0 0 0 0 0 0 0 0 0 0 0 0 0 0 0 0 0 0 0 0 0 0 0 0 0 0 0 0 0 0 0 0 0 0 0 0 0 0 0
0 0 0 0 0 0 0 0 0 0 0 0 0 0 0 0 0 0 0 0 0 0 0 0 0 0 0 0 0 0 0 0 0 0 0 0 0 0 0 0 0 0 0 0 0 0 0 0 0
0 0 0 0 0 0 0 0 0 0 0 0 0 0 0 0 0 0 0 0 0 0 0 0 0 0 0 0 0 0 0 0 0 0 0 0 0 0 0 0 0 0 0 0 0 0 0 0 0
0 0 0 0 0 0 0 0 0 0 0 0 0 0 0 0 0 0 0 0 0 0 0 0 0 0 0 0 0 0 0 0 0 0 0 0 0 0 0 0 0 0 0 0 0 0 0 0 0
0 0 0 0 0 0 0 0 0 0 0 0 0 0 0 0 0 0 0 0 0 0 0 0 0 0 0 0 0 0 0 0 0 0 0 0 0 0 0 0 0 0 0 0 0 0 0 0 0

GEFSSGP_con_cape1000_168.txt.gz
Probability
77 81 74 65 19 0 0 0 0 0 0 0 0 0 0 0 0 3 23 10 6 16 26 29 32 45 52 52 48 42 45 39 39 35 35 35 35 42 42 39 42 45 45 45 39 42 45 45 48
74 81 61 23 3 0 0 0 0 0 0 3 0 0 0 3 6 6 19 16 13 19 23 26 45 42 42 42 45 39 39 35 29 26 26 29 29 26 32 32 29 39 39 39 39 39 42 45 48
71 68 35 6 0 0 0 0 0 3 3 3 0 0 0 10 6 16 23 16 16 23 19 32 35 32 35 39 35 39 29 32 23 23 16 16 16 19 23 16 16 16 16 23 26 29 32 42 42
74 45 10 3 3 0 0 0 0 3 3 3 0 0 10 16 13 13 16 16 16 23 19 26 42 39 39 35 32 35 32 26 16 16 10 10 10 10 10 16 16 13 13 16 26 26 23 23 32
42 23 0 0 0 0 0 3 0 0 0 0 0 0 13 19 19 13 16 16 19 16 19 19 32 32 29 32 32 32 23 19 16 13 10 10 6 13 10 10 10 10 13 13 13 13 19 19 23
29 10 0 0 0 0 0 3 0 3 0 0 0 0 13 23 19 19 16 13 16 16 19 23 32 26 26 26 26 23 19 16 13 13 10 6 10 6 3 10 10 10 10 13 16 19 19 19 19
23 0 0 0 0 0 0 0 0 0 0 0 0 0 10 19 19 16 16 16 16 16 23 23 23 26 29 29 26 26 26 13 13 13 6 3 3 3 6 6 6 6 10 13 16 16 19 16 19
29 3 0 0 0 0 0 3 3 0 0 0 3 0 6 23 19 13 10 13 16 16 19 23 23 23 19 23 26 26 19 16 16 10 6 3 3 0 0 0 0 3 6 10 6 6 19 13 19
23 0 0 0 0 0 0 6 6 0 3 0 0 3 6 23 23 13 10 13 10 6 13 13 13 13 16 13 19 23 13 13 6 3 6 3 0 0 0 0 3 3 0 0 0 3 6 10 13
19 0 0 0 0 0 3 6 6 3 3 0 0 6 16 23 16 10 10 6 6 6 6 10 10 13 10 0 10 10 0 3 0 0 0 0 0 0 0 0 0 0 0 0 0 0 0 0 0
6 3 3 0 0 0 0 6 6 0 0 0 0 6 19 16 13 10 6 3 6 6 6 6 6 6 10 13 6 6 3 3 0 0 0 0 0 0 0 0 0 0 0 0 0 0 0 0 0
13 6 3 0 0 0 0 6 6 3 3 0 0 3 13 13 13 10 3 3 3 6 6 6 10 10 6 6 6 6 3 0 0 0 0 0 0 0 0 0 0 0 0 0 0 0 0 0 0
0 0 0 0 0 0 0 0 3 3 10 6 3 13 13 13 13 10 3 3 3 3 6 6 10 10 10 13 10 3 6 3 3 3 3 0 0 0 0 0 0 0 0 0 0 0 0 0 0
0 0 0 0 0 0 0 0 3 6 6 13 10 10 10 13 10 6 6 3 3 3 3 10 10 10 10 10 10 3 6 10 3 3 3 0 0 0 0 0 0 0 0 0 0 0 0 0 0
0 0 0 0 0 0 0 0 0 6 13 13 10 13 16 19 6 6 6 3 3 3 3 3 10 10 10 13 10 10 6 3 3 3 3 0 0 0 0 0 0 0 0 0 0 0 0 0 0
0 0 0 0 0 0 0 0 3 10 10 10 10 10 19 16 13 6 10 10 6 6 6 6 6 6 10 10 13 6 3 3 3 0 0 0 0 0 0 0 0 0 0 0 0 0 0 0 0
0 0 0 0 0 0 0 0 3 10 10 10 10 6 13 13 13 10 10 10 10 10 10 13 10 10 3 6 10 6 3 6 3 0 0 0 0 0 0 0 0 0 0 0 0 0 0 0 0
0 0 0 0 0 0 0 3 3 6 10 10 10 6 10 10 10 6 6 10 10 10 10 10 6 6 6 10 10 10 3 3 0 0 0 0 0 0 0 0 0 0 0 0 0 0 0 0 0
0 0 0 0 0 0 0 0 3 3 6 10 10 6 6 6 6 6 6 6 6 6 6 6 6 6 6 6 6 6 6 3 0 0 0 0 0 0 0 0 0 0 0 0 0 0 0 0 0
0 0 0 0 0 0 0 0 3 3 3 6 6 3 6 6 6 6 6 3 3 3 6 6 3 3 3 6 6 6 3 0 0 0 0 0 0 0 0 0 0 0 0 0 0 0 0 0 0
0 0 0 0 0 0 0 0 0 0 3 3 3 10 6 3 3 3 6 3 3 3 6 3 3 3 3 3 6 3 3 0 0 0 0 0 0 0 0 0 0 0 3 0 0 0 0 0 3
0 0 0 0 0 0 0 0 0 0 0 3 3 6 6 3 3 6 6 6 6 3 0 3 3 3 3 3 3 3 3 3 0 0 0 0 0 0 0 0 0 0 3 3 0 0 0 0 3
0 0 0 0 0 0 0 0 0 0 0 0 0 3 3 10 6 6 10 10 6 3 0 3 3 3 3 3 3 6 6 3 0 0 0 0 0 0 0 0 0 0 3 3 0 0 0 0 0
0 0 0 0 0 0 0 0 0 0 0 0 0 3 3 6 10 10 10 10 6 0 0 0 3 3 3 6 3 6 3 3 3 3 3 3 0 0 0 0 0 0 0 3 0 0 0 0 3
0 0 0 0 0 0 0 0 0 0 0 0 0 3 3 6 6 10 10 10 10 6 0 0 0 0 3 6 6 3 3 3 3 3 3 3 3 0 0 0 0 0 0 0 0 0 0 0 0
0 0 0 0 0 0 0 0 3 0 0 0 0 0 0 6 10 10 10 10 10 6 3 3 3 3 0 0 0 0 0 0 0 0 0 0 0 0 0 0 0 0 0 0 0 0 0 0 0
0 0 0 0 0 0 0 0 0 0 0 0 0 0 0 3 3 3 10 6 6 6 6 0 0 0 0 0 0 0 0 0 0 0 0 0 0 0 0 0 0 0 0 3 3 3 3 0 3
0 0 0 0 0 0 0 0 0 0 0 0 3 3 3 3 3 3 3 3 3 3 3 0 0 0 0 0 0 0 0 0 0 0 0 0 0 0 3 3 3 0 0 3 3 3 3 0 0
0 0 0 0 0 0 0 0 0 0 0 0 3 3 3 3 3 3 6 3 3 3 3 3 0 0 0 0 0 0 0 0 0 0 0 0 0 0 0 3 3 3 3 3 3 0 0 0 0
0 0 0 0 0 0 0 0 0 0 0 0 0 3 3 3 3 6 6 3 3 3 3 3 0 0 0 0 0 0 0 0 0 0 0 0 0 0 0 0 3 3 3 3 3 0 0 0 0

GEFSSGP_con_cape1000_174.txt.gz
Probability
68 71 90 97 94 65 3 0 0 0 0 0 0 0 3 6 10 10 23 26 26 32 26 42 45 48 45 45 48 55 48 35 39 39 39 35 42 45 45 45 45 48 45 45 45 48 48 45 48
68 68 84 97 65 3 0 0 0 3 0 0 0 0 0 6 16 19 23 23 26 23 26 23 42 39 48 45 45 39 32 29 29 29 26 29 32 32 32 35 32 35 39 42 42 45 42 42 42
58 61 77 81 16 0 0 0 0 0 0 3 3 3 0 6 6 19 23 23 19 23 23 23 35 35 32 39 29 26 19 19 19 16 13 13 23 23 26 26 26 32 29 29 32 35 42 39 35
58 81 61 29 0 0 0 3 0 0 0 3 3 3 3 6 16 13 26 16 19 19 19 23 32 29 26 32 32 29 23 19 16 13 13 13 13 13 19 13 13 19 23 16 19 23 23 19 23
55 61 26 3 0 0 3 3 3 0 0 3 6 6 13 10 16 19 19 19 16 16 16 19 35 32 32 35 32 19 16 16 16 16 16 19 16 16 10 10 10 13 16 16 19 19 16 19 23
65 42 6 3 0 3 3 3 3 0 0 0 3 6 10 13 16 19 19 16 19 16 16 19 35 35 35 32 29 23 19 16 16 13 16 10 6 6 6 10 13 13 16 16 19 16 16 16 23
52 39 0 0 0 6 3 3 0 3 0 3 0 3 13 19 23 19 13 16 16 16 16 16 23 23 32 29 29 19 19 19 16 10 3 3 6 6 6 3 3 0 3 6 13 16 16 16 16
45 39 0 0 6 3 6 0 0 0 0 0 0 6 13 16 19 16 16 16 16 13 16 16 16 13 13 23 26 19 16 16 13 6 10 10 10 3 6 0 0 0 0 0 6 10 13 6 10
23 13 0 0 3 3 10 0 0 3 0 3 6 10 13 16 16 16 16 16 13 10 13 16 16 10 6 10 16 19 19 16 10 10 10 13 3 0 0 0 3 0 0 0 3 3 6 6 0
23 13 0 3 3 3 10 3 0 3 0 10 10 16 10 16 16 13 10 10 10 6 10 10 10 13 6 3 3 3 3 3 3 3 3 3 0 0 0 3 6 3 3 3 3 6 10 3 0
3 3 3 10 3 0 6 6 0 0 0 0 10 16 16 13 10 10 10 10 6 3 6 0 3 6 3 3 3 3 3 3 3 0 0 0 0 0 0 0 0 0 0 0 0 0 0 0 0
3 0 3 10 0 0 3 3 3 6 0 3 6 16 16 13 13 10 10 6 3 3 3 3 3 0 0 3 3 0 0 0 0 0 0 0 0 0 0 0 0 0 0 0 0 0 0 0 0
0 3 3 3 0 0 3 3 0 6 0 3 3 10 16 13 13 10 6 6 3 3 3 3 3 3 3 3 3 0 3 0 3 3 3 0 0 0 0 0 0 0 0 0 0 0 0 0 0
0 3 3 3 0 0 0 0 3 6 3 3 10 10 16 13 13 10 6 6 3 3 3 3 3 3 3 6 3 3 3 6 3 3 3 3 0 0 0 0 0 0 0 0 0 0 0 0 0
0 3 3 0 0 0 0 0 3 3 6 6 10 10 13 13 13 10 3 3 3 3 3 3 3 3 6 6 3 3 6 3 3 3 0 0 0 0 0 0 0 0 0 0 0 0 0 0 0
0 0 0 0 0 0 0 0 3 3 6 6 10 13 13 13 13 6 3 3 3 3 3 3 3 3 6 6 6 3 3 3 0 0 0 0 0 0 0 0 0 0 0 0 0 0 0 0 0
0 0 0 0 0 0 0 0 0 10 6 10 10 13 13 13 13 6 6 6 3 3 3 3 3 3 6 6 6 6 3 0 0 0 0 0 0 0 0 0 0 0 0 0 0 0 0 0 0
0 0 0 0 0 0 0 0 0 6 6 6 10 13 13 16 6 6 6 6 6 3 3 3 3 6 3 3 6 6 0 0 0 0 0 0 0 0 0 0 0 0 0 0 0 0 0 0 0
0 0 0 0 0 0 0 0 3 6 6 6 13 6 10 16 13 6 6 6 6 10 10 10 6 3 3 3 3 3 3 0 0 0 0 0 0 0 0 0 0 0 0 0 0 0 0 0 0
0 0 0 0 0 0 0 0 0 3 3 3 13 3 6 16 13 3 3 6 6 10 10 6 6 6 6 6 6 3 3 0 0 0 0 0 0 0 0 0 0 0 0 0 0 0 0 0 0
0 0 0 0 0 0 0 3 0 3 3 3 3 6 3 10 6 3 3 3 3 3 6 6 6 6 6 3 3 0 0 0 0 0 0 0 0 0 0 0 0 0 0 0 0 0 0 0 0
0 0 0 0 0 0 0 0 0 0 0 0 0 6 10 6 6 6 6 6 3 3 6 6 6 3 3 3 3 0 0 0 0 0 0 0 0 0 0 0 0 0 0 0 0 0 0 0 0
0 0 0 0 0 0 0 0 3 0 0 0 3 10 10 6 6 6 6 3 3 6 6 6 3 3 3 3 3 3 3 0 0 0 0 0 0 0 0 0 0 0 0 0 0 0 3 3 3
0 0 0 0 0 0 0 0 3 0 0 0 0 6 6 6 3 6 6 3 3 3 3 3 3 0 0 0 3 3 3 3 0 0 0 0 0 0 0 0 0 0 0 0 0 0 3 3 0
0 0 0 0 0 0 0 0 0 3 0 0 0 3 3 10 10 13 6 3 6 3 3 3 0 0 0 0 0 3 3 3 3 0 0 0 0 0 0 0 0 0 0 0 0 0 0 3 3
0 0 0 0 0 0 0 0 0 0 0 0 0 0 6 6 10 13 10 10 6 6 3 0 0 0 0 0 0 0 0 0 0 0 0 0 0 0 0 0 0 0 0 0 0 0 0 0 0
0 0 0 0 0 0 0 0 0 0 0 0 0 0 3 6 6 13 13 10 6 6 6 0 0 0 0 0 0 0 0 0 0 0 0 0 0 0 0 0 0 3 0 0 0 0 0 0 0
0 0 0 0 0 0 0 0 0 0 0 0 0 0 3 3 3 6 13 13 6 6 3 3 0 0 0 0 0 0 0 0 0 0 0 0 0 0 0 0 0 0 3 3 3 3 3 0 0
0 0 0 0 0 0 0 0 0 0 0 0 0 3 3 3 3 6 6 10 10 13 3 0 0 0 0 0 0 0 0 0 0 0 0 0 0 0 0 0 0 0 0 3 3 3 3 3 0
0 0 0 0 0 0 0 0 0 0 0 0 0 3 3 3 6 6 6 10 10 10 3 0 0 0 0 0 0 0 0 0 0 0 0 0 0 0 0 0 0 0 0 0 0 0 0 0 0